CZ-11 DEB (44318 NORAD) Tracking and Keplerian Element Data

This shows tracking and keplerian element data for the satellite.

Feedback or suggestion? Click here.




ElementValue
Catalog44318
NameCZ-11 DEB
Epoch Orbit425
Epoch Day186.18673726
Epoch Year2019
RAAN133.1345
Inclination44.909
Eccentricity0.0250875
Argument of Perigee117.233
Mean Anonmoly245.4356
Mean Motion15.41970925
Decay Rate0.00078794
L11 44318U 19032J 19186.18673726 .00078794 10130-4 55760-3 0 9990
L22 44318 44.9090 133.1345 0250875 117.2330 245.4356 15.41970925 4255

Live tracking and technical data element details for CZ-11 DEB (NORAD 44318). CZ-11 DEB can be tracked NOW for your location showing map with azimuth and elevation plus other details from your city location.

Track the satellite on the map from your city or location and see movement details for azimuth, elevation, latitude, longitude, range, height, and movement on the map or in text.







IsCatalogInMostPopularTable: catalog: 44318, numindb: 12
Update: records affected: 1



GetName: 44318 CZ-11 DEB

Hit Count: updated at: Sun, 21 Jul 2019 21:19:43 GMT